SCP
0 0 0 0 0 0 0 0 0 0 0 0 0 0 0 0 0 0 0 0 0 0 0 0 0 0 0 0 0 0 0 0 0 0 0 0 0 0
0 0 0 0 0 0 0 0 0 0 0 0 0 0 0 0 0 0 0 0 0 0 0 0 0 0 0 0 0 0 0 0 0 0 0 0 0 0
0 0 0 0 0 0 0 0 0 0 0 0 0 0 0 0 0 0 0 0 0 0 0 0 0 0 -0 0 0 0 0 0 0 0 0 0 0 0
0 0 0 0 0 0 0 0 0 0 0 0 0 0 0 0 0 0 0 0 0 0 0 0 0 0 0 0 0 0 0 0 0 0 0 0 0 0
0 0 0 0 0 0 0 0 0 0 0 0 0 0 0 0 0 0 0 0 0 0 0 0 0 0 0 0 0 0 0 0 0 0 0 0 0 0
0 0 0 0 0 0 0 0 0 0 0 0 0 0 0 0 0 0 0 0 0 0 0 0 0 0 0 0 0 0 0 0 0 0 0 0 0 0
0 0 0 0 0 0 0 0 0 0 0 0 0 0 0 0 0 0 0 0 0 0 0 0 0 0 0 0 0 0 0 0 0 0 0 0 0 0
0 0 0 0 0 0 0 0 0 0 0 0 0 0 0 0 0 0 0 0 -0 0 0 0 0 0 0 0 0 0 0 0 0 0 0 0 0 0
0 0 0 0 0 0 0 0 0 0 0 0 0 0 0 0 0 0 0 0 -0 0 -0 -0 0 0 0 0 0 0 0 0 0 0 0 0 0 0
0 0 0 0 0 0 0 0 0 0 0 0 0 0 0 0 0 0 0 0 0 0 0 -0 0 0 0 0 0 0 0 0 0 0 0 0 0 0
0 0 0 0 0 0 0 0 0 0 0 0 0 0 0 0 0 0 0 0 0 0 0 0 0 0 0 0 0 0 0 -0 0 0 0 0 0 0
0 0 0 0 0 0 0 0 0 0 0 0 0 0 0 0 0 0 0 0 0 0 0 0 0 0 0 0 0 -0 -0 0 0 0 0 0 0 -0
0 0 0 0 0 0 0 0 0 0 0 0 0 0 0 0 0 0 0 0 0 0 0 0 0 0 0 0 0 -0 -0 0 0 -0 -0 0 0 0
0 0 0 0 0 0 0 0 0 0 0 0 0 0 0 0 0 0 0 0 0 0 0 0 0 0 0 0 0 0 0 0 0 -0 0 0 0 0
0 0 0 0 0 0 0 0 0 0 0 0 0 0 0 0 0 0 0 0 0 0 0 0 0 0 0 0 0 0 0 0 -0 0 0 0 0 0
0 0 0 0 0 0 0 0 0 0 0 0 0 0 0 0 0 0 0 0 0 0 0 0 0 0 0 0 0 0 0 0 0 0 0 0 0 0
0 0 0 0 0 0 0 0 0 0 0 0 0 0 0 0 0 0 0 0 0 0 0 0 0 0 0 0 0 0 0 0 0 0 0 0 0 0
0 0 0 0 0 0 0 0 0 0 0 0 0 0 0 0 0 0 0 0 0 0 0 0 0 0 0 0 -0 0 0 0 0 0 0 0 0 0
0 0 0 0 0 0 0 0 0 0 0 0 0 0 0 0 0 0 0 0 0 0 0 0 0 0 0 0 0 -0 0 0 0 0 0 0 0 0
0 0 0 0 0 0 0 0 0 0 0 0 0 0 0 0 0 0 0 0 0 0 0 0 0 0 0 0 0 0 0 0 0 0 0 0 0 -0
0 0 0 0 0 0 0 0 0 0 0 0 0 0 0 0 0 0 0 0 0 0 0 0 0 0 0 0 0 0 0 0 0 0 0 0 0 -0
0 0 0 0 0 0 0 0 0 0 0 0 0 0 0 0 0 0 0 0 0 0 0 0 0 0 0 0 0 0 0 0 0 0 0 0 0 -0
0 0 0 0 0 0 0 0 0 0 0 0 0 0 0 0 0 0 0 0 0 0 0 0 0 0 0 0 0 0 0 0 0 0 0 0 0 0
Wind_Speed_500mb
35 36 38 35 35 35 33 31 31 28 33 26 15 11 5 5 9 15 22 29 33 38 41 44 48 51 52 54 55 57 61 62 60 59 59 57 55 54
34 34 34 33 31 30 27 25 26 24 23 27 18 10 6 10 15 19 24 30 33 37 41 45 48 51 54 53 52 54 56 59 61 60 58 59 64 65
35 35 34 32 30 28 25 24 24 24 23 26 18 11 7 10 15 20 26 32 36 40 43 46 51 53 54 54 56 58 61 60 59 59 61 63 62 65
38 38 37 35 33 31 29 26 23 22 22 20 17 12 10 10 14 20 25 32 34 38 40 40 44 48 50 53 55 58 59 61 62 63 63 62 66 69
39 39 38 38 37 35 31 25 23 21 18 15 13 11 13 16 19 23 25 28 36 37 36 40 42 45 46 48 52 54 57 60 62 65 70 71 69 68
42 44 44 44 41 36 31 28 24 20 15 12 11 13 16 21 29 34 36 40 40 42 38 43 44 45 46 49 53 55 58 61 65 70 74 76 79 79
49 50 49 47 42 39 35 31 24 18 13 12 12 15 20 26 34 43 47 45 43 48 48 47 49 45 45 49 54 56 59 64 71 75 78 81 83 85
50 51 49 46 42 38 32 28 24 19 16 14 16 20 27 30 35 41 47 53 47 49 64 56 51 45 53 54 57 57 57 67 70 74 78 82 84 86
52 52 50 45 42 36 31 27 21 17 15 17 20 23 28 33 36 39 43 48 52 58 67 68 54 62 60 60 59 52 64 69 71 75 78 82 85 88
53 50 47 44 39 34 28 25 20 19 18 19 23 26 29 34 34 38 42 44 44 52 62 63 71 77 73 67 54 63 73 69 73 77 80 81 85 89
54 51 47 42 35 32 29 24 23 22 21 21 23 26 29 35 36 37 40 46 49 50 51 59 72 84 80 68 64 83 74 73 79 80 81 81 84 90
54 48 46 42 38 31 27 24 24 20 21 21 23 26 26 30 36 38 41 43 46 42 45 59 59 73 72 75 95 85 81 86 82 80 81 83 86 91
50 49 44 42 38 30 26 25 21 22 21 21 23 25 24 28 33 35 37 39 42 37 44 53 53 58 61 86 99 93 93 91 89 88 87 86 86 89
51 47 41 37 32 27 25 22 19 20 20 21 23 26 27 30 32 33 35 36 38 38 38 44 50 52 58 77 91 100 99 90 88 91 95 93 90 90
47 40 36 35 31 23 23 20 19 21 21 21 24 26 27 30 33 32 35 34 33 31 34 39 43 48 50 58 76 87 96 97 84 94 97 100 100 99
43 39 38 31 24 25 22 22 22 22 23 25 26 26 27 28 31 35 37 40 36 25 29 35 39 45 54 54 62 72 66 78 91 92 99 101 102 101
31 31 32 30 27 24 23 24 25 26 27 28 28 27 28 28 31 35 39 41 40 44 38 30 37 43 48 55 60 54 73 82 84 87 95 106 109 106
38 39 35 28 24 26 27 27 27 28 28 28 29 29 30 29 30 34 38 40 42 41 42 44 48 55 60 57 39 60 72 79 82 86 90 98 120 114
37 30 29 29 27 27 29 28 28 27 27 28 30 30 31 32 32 33 36 39 39 41 38 40 43 51 61 70 71 58 70 79 86 91 89 91 102 117
33 30 23 27 31 31 29 27 27 27 27 28 29 32 33 33 33 34 36 39 41 41 39 34 37 44 53 63 76 79 68 75 77 87 98 99 96 96
31 26 28 32 32 30 28 27 27 27 29 30 32 33 36 36 34 35 37 37 39 40 42 42 39 42 51 58 68 82 79 68 66 74 86 93 100 107
32 30 33 31 30 29 29 28 27 28 31 32 33 34 36 38 38 38 38 40 38 42 46 47 46 46 47 56 69 76 86 85 71 74 78 69 81 100
33 32 33 32 31 31 31 30 29 30 32 33 35 36 38 38 42 42 40 40 43 45 46 51 50 45 46 57 68 78 79 86 85 94 98 93 86 85
Wind_Direction_500mb
247 243 242 242 238 236 232 224 214 196 200 201 208 218 272 320 348 352 347 346 355 354 354 354 355 358 357 356 355 353 351 351 351 348 344 339 335 330
238 235 235 233 232 229 223 212 200 196 187 192 200 222 274 316 336 344 344 344 351 351 351 352 352 353 352 351 350 348 348 347 345 343 340 336 332 329
240 237 234 230 226 220 210 198 189 189 190 193 204 220 260 306 328 334 338 339 345 345 347 349 348 348 347 345 344 343 342 341 340 339 337 335 333 328
236 233 229 223 216 211 206 201 198 195 196 192 201 222 257 292 321 330 337 337 340 341 343 342 340 340 339 338 336 336 336 336 336 334 334 331 328 325
233 228 222 219 214 211 210 209 209 206 201 204 220 253 291 310 317 322 329 334 335 338 337 336 336 336 333 330 329 331 331 332 331 330 330 329 327 324
229 226 221 216 213 213 215 219 222 224 224 232 253 281 297 312 318 322 326 335 335 329 335 333 335 333 330 328 329 329 330 330 328 328 328 327 325 323
228 222 218 218 218 218 218 221 226 235 247 261 275 293 310 320 325 329 329 331 334 324 329 331 331 330 328 329 328 329 330 328 328 327 326 325 324 322
226 222 220 221 221 222 226 231 235 243 255 274 291 304 313 318 322 325 328 330 344 329 326 335 332 334 335 334 331 329 329 330 329 328 327 325 322 320
225 225 224 223 223 224 227 234 239 254 268 286 296 303 310 314 320 323 326 334 337 332 328 331 331 333 335 334 329 326 335 336 332 330 328 325 322 319
227 227 229 229 229 229 232 242 255 267 278 285 295 303 308 309 317 322 327 330 329 325 327 328 328 327 331 333 328 330 338 339 335 331 329 326 322 317
229 228 231 232 231 232 230 237 246 260 272 285 292 297 304 312 320 323 322 321 327 331 325 328 329 324 326 329 326 331 340 341 337 334 330 328 323 317
225 229 230 229 230 232 229 235 246 256 269 279 289 294 302 310 315 319 323 325 330 336 324 328 331 333 329 326 323 329 336 339 334 332 330 328 326 323
229 226 226 228 232 232 233 239 248 257 262 276 286 290 302 310 312 317 321 324 326 333 327 329 329 331 329 322 320 327 333 332 332 331 327 327 329 331
229 226 224 232 236 236 237 246 251 260 270 282 287 293 308 310 311 314 316 320 323 327 327 324 325 328 326 320 318 320 329 334 335 331 329 326 328 329
229 226 223 230 238 241 248 256 264 270 279 283 286 297 303 305 306 310 311 313 317 323 322 319 317 317 319 318 316 323 329 332 336 333 331 330 331 330
220 220 223 228 238 246 264 269 273 282 287 289 292 297 302 304 305 306 307 310 315 321 324 318 315 315 314 318 318 324 333 332 336 337 331 328 329 328
221 223 229 229 235 244 259 272 278 283 286 289 294 301 304 305 305 307 309 313 321 326 330 323 314 312 314 321 323 334 337 337 338 335 335 329 327 330
233 224 224 228 241 255 259 267 272 278 284 290 296 300 300 304 305 305 307 313 319 326 330 329 325 320 321 325 336 340 340 335 335 339 335 326 324 331
218 214 224 237 245 251 258 263 270 277 283 289 294 297 300 302 304 306 309 315 321 325 333 330 326 323 326 327 330 345 336 337 341 334 331 323 318 329
225 236 236 244 248 250 256 262 270 276 282 288 291 294 298 303 306 309 312 318 321 323 329 329 321 318 324 324 322 330 341 337 337 331 327 324 322 322
238 239 245 246 248 254 259 265 271 280 284 287 291 295 299 303 307 308 311 315 316 322 326 327 323 313 312 315 321 327 335 341 340 329 325 321 320 323
244 249 250 251 254 258 263 269 274 278 281 285 288 292 295 302 305 305 309 311 314 316 318 319 320 311 311 318 322 326 330 337 340 336 335 326 322 319
255 253 253 255 258 262 266 270 275 278 280 283 286 289 295 300 300 302 304 306 310 311 315 315 318 313 315 321 324 327 331 334 337 337 337 342 334 327
Wind_Speed_850mb
35 36 38 35 35 35 33 31 31 28 33 26 15 11 5 5 9 15 22 29 33 38 41 44 48 51 52 54 55 57 61 62 60 59 59 57 55 54
34 34 34 33 31 30 27 25 26 24 23 27 18 10 6 10 15 19 24 30 33 37 41 45 48 51 54 53 52 54 56 59 61 60 58 59 64 65
35 35 34 32 30 28 25 24 24 24 23 26 18 11 7 10 15 20 26 32 36 40 43 46 51 53 54 54 56 58 61 60 59 59 61 63 62 65
38 38 37 35 33 31 29 26 23 22 22 20 17 12 10 10 14 20 25 32 34 38 40 40 44 48 50 53 55 58 59 61 62 63 63 62 66 69
39 39 38 38 37 35 31 25 23 21 18 15 13 11 13 16 19 23 25 28 36 37 36 40 42 45 46 48 52 54 57 60 62 65 70 71 69 68
42 44 44 44 41 36 31 28 24 20 15 12 11 13 16 21 29 34 36 40 40 42 38 43 44 45 46 49 53 55 58 61 65 70 74 76 79 79
49 50 49 47 42 39 35 31 24 18 13 12 12 15 20 26 34 43 47 45 43 48 48 47 49 45 45 49 54 56 59 64 71 75 78 81 83 85
50 51 49 46 42 38 32 28 24 19 16 14 16 20 27 30 35 41 47 53 47 49 64 56 51 45 53 54 57 57 57 67 70 74 78 82 84 86
52 52 50 45 42 36 31 27 21 17 15 17 20 23 28 33 36 39 43 48 52 58 67 68 54 62 60 60 59 52 64 69 71 75 78 82 85 88
53 50 47 44 39 34 28 25 20 19 18 19 23 26 29 34 34 38 42 44 44 52 62 63 71 77 73 67 54 63 73 69 73 77 80 81 85 89
54 51 47 42 35 32 29 24 23 22 21 21 23 26 29 35 36 37 40 46 49 50 51 59 72 84 80 68 64 83 74 73 79 80 81 81 84 90
54 48 46 42 38 31 27 24 24 20 21 21 23 26 26 30 36 38 41 43 46 42 45 59 59 73 72 75 95 85 81 86 82 80 81 83 86 91
50 49 44 42 38 30 26 25 21 22 21 21 23 25 24 28 33 35 37 39 42 37 44 53 53 58 61 86 99 93 93 91 89 88 87 86 86 89
51 47 41 37 32 27 25 22 19 20 20 21 23 26 27 30 32 33 35 36 38 38 38 44 50 52 58 77 91 100 99 90 88 91 95 93 90 90
47 40 36 35 31 23 23 20 19 21 21 21 24 26 27 30 33 32 35 34 33 31 34 39 43 48 50 58 76 87 96 97 84 94 97 100 100 99
43 39 38 31 24 25 22 22 22 22 23 25 26 26 27 28 31 35 37 40 36 25 29 35 39 45 54 54 62 72 66 78 91 92 99 101 102 101
31 31 32 30 27 24 23 24 25 26 27 28 28 27 28 28 31 35 39 41 40 44 38 30 37 43 48 55 60 54 73 82 84 87 95 106 109 106
38 39 35 28 24 26 27 27 27 28 28 28 29 29 30 29 30 34 38 40 42 41 42 44 48 55 60 57 39 60 72 79 82 86 90 98 120 114
37 30 29 29 27 27 29 28 28 27 27 28 30 30 31 32 32 33 36 39 39 41 38 40 43 51 61 70 71 58 70 79 86 91 89 91 102 117
33 30 23 27 31 31 29 27 27 27 27 28 29 32 33 33 33 34 36 39 41 41 39 34 37 44 53 63 76 79 68 75 77 87 98 99 96 96
31 26 28 32 32 30 28 27 27 27 29 30 32 33 36 36 34 35 37 37 39 40 42 42 39 42 51 58 68 82 79 68 66 74 86 93 100 107
32 30 33 31 30 29 29 28 27 28 31 32 33 34 36 38 38 38 38 40 38 42 46 47 46 46 47 56 69 76 86 85 71 74 78 69 81 100
33 32 33 32 31 31 31 30 29 30 32 33 35 36 38 38 42 42 40 40 43 45 46 51 50 45 46 57 68 78 79 86 85 94 98 93 86 85
Wind_Direction_850mb
247 243 242 242 238 236 232 224 214 196 200 201 208 218 272 320 348 352 347 346 355 354 354 354 355 358 357 356 355 353 351 351 351 348 344 339 335 330
238 235 235 233 232 229 223 212 200 196 187 192 200 222 274 316 336 344 344 344 351 351 351 352 352 353 352 351 350 348 348 347 345 343 340 336 332 329
240 237 234 230 226 220 210 198 189 189 190 193 204 220 260 306 328 334 338 339 345 345 347 349 348 348 347 345 344 343 342 341 340 339 337 335 333 328
236 233 229 223 216 211 206 201 198 195 196 192 201 222 257 292 321 330 337 337 340 341 343 342 340 340 339 338 336 336 336 336 336 334 334 331 328 325
233 228 222 219 214 211 210 209 209 206 201 204 220 253 291 310 317 322 329 334 335 338 337 336 336 336 333 330 329 331 331 332 331 330 330 329 327 324
229 226 221 216 213 213 215 219 222 224 224 232 253 281 297 312 318 322 326 335 335 329 335 333 335 333 330 328 329 329 330 330 328 328 328 327 325 323
228 222 218 218 218 218 218 221 226 235 247 261 275 293 310 320 325 329 329 331 334 324 329 331 331 330 328 329 328 329 330 328 328 327 326 325 324 322
226 222 220 221 221 222 226 231 235 243 255 274 291 304 313 318 322 325 328 330 344 329 326 335 332 334 335 334 331 329 329 330 329 328 327 325 322 320
225 225 224 223 223 224 227 234 239 254 268 286 296 303 310 314 320 323 326 334 337 332 328 331 331 333 335 334 329 326 335 336 332 330 328 325 322 319
227 227 229 229 229 229 232 242 255 267 278 285 295 303 308 309 317 322 327 330 329 325 327 328 328 327 331 333 328 330 338 339 335 331 329 326 322 317
229 228 231 232 231 232 230 237 246 260 272 285 292 297 304 312 320 323 322 321 327 331 325 328 329 324 326 329 326 331 340 341 337 334 330 328 323 317
225 229 230 229 230 232 229 235 246 256 269 279 289 294 302 310 315 319 323 325 330 336 324 328 331 333 329 326 323 329 336 339 334 332 330 328 326 323
229 226 226 228 232 232 233 239 248 257 262 276 286 290 302 310 312 317 321 324 326 333 327 329 329 331 329 322 320 327 333 332 332 331 327 327 329 331
229 226 224 232 236 236 237 246 251 260 270 282 287 293 308 310 311 314 316 320 323 327 327 324 325 328 326 320 318 320 329 334 335 331 329 326 328 329
229 226 223 230 238 241 248 256 264 270 279 283 286 297 303 305 306 310 311 313 317 323 322 319 317 317 319 318 316 323 329 332 336 333 331 330 331 330
220 220 223 228 238 246 264 269 273 282 287 289 292 297 302 304 305 306 307 310 315 321 324 318 315 315 314 318 318 324 333 332 336 337 331 328 329 328
221 223 229 229 235 244 259 272 278 283 286 289 294 301 304 305 305 307 309 313 321 326 330 323 314 312 314 321 323 334 337 337 338 335 335 329 327 330
233 224 224 228 241 255 259 267 272 278 284 290 296 300 300 304 305 305 307 313 319 326 330 329 325 320 321 325 336 340 340 335 335 339 335 326 324 331
218 214 224 237 245 251 258 263 270 277 283 289 294 297 300 302 304 306 309 315 321 325 333 330 326 323 326 327 330 345 336 337 341 334 331 323 318 329
225 236 236 244 248 250 256 262 270 276 282 288 291 294 298 303 306 309 312 318 321 323 329 329 321 318 324 324 322 330 341 337 337 331 327 324 322 322
238 239 245 246 248 254 259 265 271 280 284 287 291 295 299 303 307 308 311 315 316 322 326 327 323 313 312 315 321 327 335 341 340 329 325 321 320 323
244 249 250 251 254 258 263 269 274 278 281 285 288 292 295 302 305 305 309 311 314 316 318 319 320 311 311 318 322 326 330 337 340 336 335 326 322 319
255 253 253 255 258 262 266 270 275 278 280 283 286 289 295 300 300 302 304 306 310 311 315 315 318 313 315 321 324 327 331 334 337 337 337 342 334 327